Date,TemperatureHighF,TemperatureAvgF,TemperatureLowF,DewpointHighF,DewpointAvgF,DewpointLowF,HumidityHigh,HumidityAvg,HumidityLow,PressureMaxIn,PressureMinIn,WindSpeedMaxMPH,WindSpeedAvgMPH,GustSpeedMaxMPH,PrecipitationSumIn
2013-1-1,32,25,16,32,18,11,99,75,58,0.00,40.00,11,4,20,0.00
2013-1-2,26,20,13,19,17,12,96,87,77,0.00,40.00,9,4,12,0.00
2013-1-3,30,23,14,28,18,9,94,82,69,0.00,40.00,12,6,19,0.00
2013-1-4,29,26,21,26,21,16,92,81,68,0.00,40.00,17,10,27,0.00
2013-1-5,35,28,21,33,26,21,99,90,74,0.00,40.00,12,6,21,0.00
2013-1-6,37,34,31,35,33,29,99,94,82,0.00,40.00,14,7,23,0.00
2013-1-7,36,32,29,31,28,26,93,86,73,0.00,40.00,15,6,24,0.00
2013-1-8,39,32,26,32,28,25,96,86,68,0.00,40.00,10,5,17,0.00
2013-1-9,48,41,32,38,33,26,97,75,51,0.00,40.00,16,8,28,0.00
2013-1-10,42,35,28,37,32,27,99,89,68,0.00,40.00,9,3,12,0.00
2013-1-11,60,48,36,57,47,36,100,95,80,0.00,40.00,17,6,27,0.00
2013-1-12,60,54,49,57,53,48,100,95,90,0.00,40.00,11,6,19,0.00
2013-1-13,53,42,34,53,42,33,100,99,99,0.00,40.00,16,6,24,0.00
2013-1-14,33,27,24,33,22,19,100,84,72,0.00,40.00,16,6,24,0.00
2013-1-15,32,26,20,26,21,19,98,82,59,0.00,40.00,7,2,11,0.00
2013-1-16,38,31,25,29,24,20,96,76,48,0.00,40.00,14,6,22,0.00
2013-1-17,41,33,21,34,25,11,96,73,48,0.00,40.00,14,6,22,0.00
2013-1-18,37,29,21,26,20,11,86,69,59,0.00,40.00,22,8,35,0.00
2013-1-19,50,43,37,38,31,26,75,62,52,0.00,40.00,17,12,29,0.00
2013-1-20,45,27,20,38,17,10,78,65,51,0.00,40.00,27,13,40,0.00
2013-1-21,21,17,10,14,10,4,81,71,61,0.00,40.00,17,9,29,0.00
2013-1-22,12,8,2,8,3,-1,89,80,72,0.00,40.00,12,6,22,0.00
2013-1-23,19,13,7,15,7,1,92,77,58,0.00,40.00,10,5,16,0.00
2013-1-24,26,16,9,16,9,3,97,75,45,0.00,40.00,12,5,17,0.00
2013-1-25,22,20,17,22,16,11,99,86,75,0.00,40.00,9,5,17,0.00
2013-1-26,28,24,21,24,20,14,100,84,60,0.00,40.00,11,4,16,0.00
2013-1-27,32,25,17,31,21,14,95,83,73,0.00,40.00,11,4,16,0.00
2013-1-28,50,43,32,50,43,30,100,99,92,0.00,40.00,12,7,21,0.00
2013-1-29,59,51,37,58,50,37,100,98,96,0.00,40.00,15,7,24,0.00
2013-1-30,63,53,34,61,52,31,100,96,89,0.00,40.00,24,12,36,0.00
2013-1-31,34,23,17,31,15,10,89,72,57,0.00,40.00,22,13,36,0.00